TimeMST,TemperatureF,Dew PointF,Humidity,Sea Level PressureIn,VisibilityMPH,Wind Direction,Wind SpeedMPH,Gust SpeedMPH,PrecipitationIn,Events,Conditions,WindDirDegrees,DateUTC
12:53 AM,-0.0,-5.1,79,30.45,10.0,SW,10.4,-,N/A,,Clear,230,2011-12-06 07:53:00
1:53 AM,1.9,-4.0,76,30.42,10.0,WSW,13.8,-,N/A,,Clear,240,2011-12-06 08:53:00
2:53 AM,-0.0,-6.0,76,30.42,10.0,WSW,10.4,-,N/A,,Clear,240,2011-12-06 09:53:00
3:53 AM,-2.9,-8.0,79,30.40,10.0,West,8.1,-,N/A,,Clear,260,2011-12-06 10:53:00
4:53 AM,-4.0,-7.1,87,30.40,10.0,West,10.4,-,N/A,,Clear,270,2011-12-06 11:53:00
5:53 AM,-2.9,-6.0,87,30.41,10.0,West,12.7,-,N/A,,Clear,260,2011-12-06 12:53:00
6:53 AM,-2.0,-6.0,83,30.39,10.0,WSW,10.4,-,N/A,,Clear,240,2011-12-06 13:53:00
7:53 AM,1.9,-2.9,80,30.38,10.0,West,13.8,-,N/A,,Clear,260,2011-12-06 14:53:00
8:53 AM,6.1,1.0,80,30.36,10.0,WSW,10.4,-,N/A,,Clear,250,2011-12-06 15:53:00
9:53 AM,10.0,3.0,73,30.35,10.0,West,12.7,-,N/A,,Clear,260,2011-12-06 16:53:00
10:53 AM,14.0,5.0,67,30.30,10.0,WSW,11.5,-,N/A,,Clear,250,2011-12-06 17:53:00
12:53 PM,21.0,5.0,50,30.22,10.0,WSW,12.7,-,N/A,,Clear,240,2011-12-06 19:53:00
1:53 PM,23.0,6.1,48,30.18,10.0,WSW,11.5,-,N/A,,Clear,240,2011-12-06 20:53:00
2:53 PM,24.1,8.1,51,30.19,10.0,WSW,8.1,-,N/A,,Clear,240,2011-12-06 21:53:00
3:53 PM,21.9,8.1,55,30.20,10.0,WSW,5.8,-,N/A,,Clear,240,2011-12-06 22:53:00
4:53 PM,16.0,6.1,65,30.24,10.0,WSW,8.1,-,N/A,,Clear,250,2011-12-06 23:53:00
5:53 PM,12.9,6.1,74,30.26,10.0,West,11.5,-,N/A,,Clear,270,2011-12-07 00:53:00
6:53 PM,12.9,6.1,74,30.26,10.0,WNW,10.4,-,N/A,,Clear,290,2011-12-07 01:53:00
7:53 PM,14.0,6.1,71,30.27,10.0,West,9.2,-,N/A,,Clear,280,2011-12-07 02:53:00
8:53 PM,12.9,6.1,74,30.27,10.0,West,12.7,-,N/A,,Clear,270,2011-12-07 03:53:00
9:53 PM,15.1,7.0,70,30.25,10.0,West,16.1,-,N/A,,Clear,280,2011-12-07 04:53:00
10:53 PM,17.1,7.0,65,30.24,10.0,West,17.3,-,N/A,,Clear,270,2011-12-07 05:53:00
11:53 PM,17.1,6.1,62,30.23,10.0,West,17.3,-,N/A,,Clear,270,2011-12-07 06:53:00